Location: *
(2.5500°S, 65.9667°W)
Time: 03:07:04
(UTC+00:00)

Okean O Rocket - Pass Details

Date: 31 May 2022
Orbit: 623 x 643 km, 98.2° (Epoch: 04 July)

Event Time Altitude Azimuth Distance (km) Brightness Sun altitude
Exits shadow 00:25:17 15° 223° (SW) 1,693 3.9 -29.6°
Maximum altitude 00:27:19 20° 257° (WSW) 1,442 3.9 -30.0°
Drops below altitude 10° 00:30:29 10° 305° (NW) 1,987 5.0 -30.7°
Sets 00:33:08 0° 322° (NW) 2,888 5.9 -31.3°
